Total_Precipitation_Accumulation
0.02 0.01 0.02 0.02 0.02 0.02 0.01 0.03 0.06 0.09 0.11 0.13 0.15 0.15 0.15 0.13 0.12 0.12 0.11 0.11 0.11 0.15 0.20 0.25 0.27 0.30 0.33 0.32 0.22 0.13 0.10 0.09 0.07 0.06 0.05 0.07 0.08 0.10 0.13 0.11 0.10 0.08 0.05
0.02 0.01 0.02 0.02 0.03 0.02 0.02 0.02 0.05 0.08 0.10 0.11 0.11 0.11 0.12 0.12 0.12 0.13 0.13 0.14 0.15 0.18 0.19 0.20 0.24 0.27 0.27 0.22 0.16 0.10 0.07 0.06 0.08 0.11 0.16 0.21 0.25 0.23 0.23 0.20 0.17 0.14 0.05
0.02 0.00 0.01 0.02 0.03 0.04 0.03 0.03 0.04 0.08 0.11 0.13 0.13 0.11 0.09 0.09 0.09 0.10 0.11 0.14 0.20 0.23 0.22 0.20 0.19 0.19 0.19 0.14 0.10 0.06 0.05 0.07 0.12 0.19 0.35 0.48 0.48 0.41 0.37 0.33 0.30 0.19 0.08
0.02 0.01 0.01 0.01 0.03 0.05 0.05 0.05 0.05 0.08 0.12 0.17 0.18 0.16 0.13 0.10 0.10 0.12 0.12 0.14 0.19 0.22 0.19 0.16 0.13 0.12 0.09 0.06 0.05 0.04 0.05 0.08 0.15 0.24 0.50 0.51 0.50 0.43 0.36 0.35 0.40 0.35 0.25
0.03 0.01 0.01 0.01 0.03 0.06 0.07 0.07 0.08 0.11 0.15 0.20 0.23 0.24 0.19 0.12 0.10 0.14 0.16 0.16 0.18 0.21 0.22 0.17 0.12 0.08 0.05 0.04 0.03 0.03 0.05 0.09 0.18 0.35 0.61 0.72 0.68 0.58 0.42 0.36 0.39 0.42 0.42
0.02 0.02 0.01 0.02 0.03 0.06 0.08 0.10 0.12 0.15 0.18 0.24 0.29 0.27 0.20 0.14 0.12 0.16 0.19 0.22 0.23 0.25 0.29 0.24 0.21 0.14 0.09 0.05 0.04 0.05 0.08 0.14 0.22 0.48 0.70 0.85 0.72 0.61 0.43 0.34 0.32 0.42 0.45
0.03 0.02 0.01 0.03 0.03 0.07 0.09 0.10 0.12 0.16 0.21 0.27 0.31 0.27 0.20 0.15 0.13 0.15 0.22 0.24 0.27 0.29 0.27 0.23 0.20 0.15 0.13 0.12 0.11 0.13 0.18 0.26 0.33 0.53 0.71 0.67 0.65 0.53 0.39 0.33 0.28 0.27 0.31
0.06 0.03 0.02 0.03 0.04 0.11 0.17 0.13 0.11 0.15 0.19 0.25 0.30 0.26 0.19 0.16 0.17 0.21 0.22 0.26 0.28 0.24 0.20 0.18 0.16 0.14 0.16 0.19 0.20 0.22 0.27 0.30 0.30 0.44 0.57 0.59 0.45 0.34 0.35 0.35 0.30 0.24 0.22
0.14 0.09 0.04 0.03 0.03 0.06 0.10 0.10 0.10 0.12 0.16 0.21 0.26 0.29 0.24 0.19 0.26 0.30 0.28 0.28 0.30 0.25 0.19 0.18 0.18 0.15 0.20 0.24 0.21 0.19 0.19 0.19 0.18 0.26 0.40 0.56 0.36 0.28 0.29 0.27 0.22 0.19 0.19
0.36 0.43 0.20 0.11 0.05 0.04 0.03 0.06 0.08 0.09 0.11 0.14 0.15 0.18 0.18 0.19 0.23 0.26 0.23 0.22 0.22 0.17 0.12 0.11 0.13 0.12 0.11 0.09 0.06 0.05 0.06 0.06 0.09 0.15 0.29 0.36 0.35 0.31 0.27 0.22 0.17 0.16 0.17
0.65 0.81 0.57 0.23 0.09 0.06 0.06 0.05 0.07 0.06 0.08 0.08 0.07 0.09 0.13 0.22 0.28 0.26 0.16 0.14 0.10 0.07 0.05 0.03 0.03 0.02 0.01 0.01 0.02 0.03 0.04 0.03 0.08 0.14 0.27 0.35 0.35 0.34 0.32 0.26 0.21 0.18 0.16
0.79 0.74 0.57 0.19 0.09 0.08 0.07 0.06 0.08 0.06 0.06 0.06 0.10 0.09 0.17 0.34 0.38 0.26 0.21 0.12 0.07 0.05 0.03 0.03 0.03 0.02 0.02 0.02 0.02 0.02 0.02 0.03 0.08 0.12 0.20 0.29 0.34 0.38 0.37 0.31 0.24 0.21 0.20
0.77 0.45 0.26 0.22 0.18 0.13 0.10 0.13 0.14 0.14 0.15 0.15 0.18 0.17 0.28 0.30 0.20 0.15 0.16 0.13 0.10 0.08 0.09 0.09 0.05 0.04 0.04 0.05 0.06 0.05 0.05 0.06 0.09 0.10 0.13 0.21 0.29 0.39 0.42 0.37 0.30 0.27 0.26
0.66 0.45 0.30 0.26 0.24 0.24 0.25 0.23 0.26 0.27 0.21 0.17 0.20 0.19 0.30 0.37 0.30 0.26 0.27 0.23 0.23 0.23 0.22 0.15 0.11 0.11 0.10 0.10 0.11 0.14 0.14 0.12 0.13 0.12 0.16 0.19 0.24 0.35 0.43 0.44 0.42 0.40 0.35
0.83 0.68 0.44 0.38 0.32 0.31 0.39 0.39 0.31 0.32 0.29 0.24 0.25 0.24 0.26 0.26 0.29 0.33 0.31 0.30 0.29 0.32 0.31 0.26 0.19 0.20 0.20 0.19 0.19 0.17 0.18 0.20 0.23 0.25 0.23 0.24 0.26 0.32 0.43 0.50 0.52 0.51 0.49
1.11 0.91 0.53 0.41 0.32 0.29 0.30 0.31 0.32 0.30 0.33 0.35 0.36 0.35 0.30 0.34 0.43 0.42 0.39 0.38 0.32 0.34 0.41 0.44 0.39 0.34 0.30 0.31 0.26 0.24 0.27 0.28 0.30 0.34 0.38 0.42 0.39 0.34 0.40 0.50 0.58 0.59 0.60
1.38 1.17 0.69 0.44 0.43 0.43 0.38 0.34 0.37 0.38 0.42 0.43 0.51 0.50 0.43 0.40 0.46 0.47 0.50 0.47 0.41 0.39 0.45 0.46 0.47 0.45 0.43 0.44 0.40 0.36 0.34 0.31 0.32 0.34 0.40 0.44 0.45 0.41 0.44 0.51 0.55 0.59 0.63
1.87 1.63 0.99 0.60 0.67 0.65 0.59 0.57 0.56 0.56 0.56 0.54 0.58 0.61 0.57 0.58 0.62 0.66 0.68 0.64 0.61 0.59 0.67 0.71 0.71 0.68 0.66 0.63 0.60 0.51 0.45 0.42 0.38 0.38 0.43 0.48 0.51 0.53 0.55 0.53 0.51 0.52 0.54
2.47 2.12 1.34 0.96 0.95 0.92 0.88 0.90 0.99 1.04 0.98 0.93 0.89 0.86 0.80 0.81 0.84 0.89 0.95 0.97 0.94 0.98 0.97 0.89 0.92 0.94 0.93 0.85 0.70 0.61 0.53 0.50 0.48 0.46 0.49 0.50 0.53 0.56 0.54 0.50 0.49 0.51 0.54
2.80 2.51 1.97 1.53 1.40 1.31 1.21 1.25 1.34 1.39 1.40 1.40 1.37 1.33 1.25 1.22 1.24 1.36 1.40 1.38 1.33 1.33 1.28 1.26 1.21 1.02 0.87 0.80 0.65 0.58 0.53 0.48 0.46 0.43 0.42 0.40 0.40 0.42 0.50 0.53 0.53 0.51 0.54
2.14 2.08 2.08 1.97 1.81 1.68 1.64 1.65 1.79 1.97 2.02 1.93 1.89 1.83 1.84 1.89 1.95 2.03 1.99 1.89 1.72 1.64 1.57 1.43 1.23 1.04 0.88 0.79 0.73 0.64 0.52 0.42 0.38 0.36 0.37 0.39 0.37 0.36 0.40 0.45 0.44 0.39 0.38
1.96 2.08 2.08 1.97 2.06 2.20 2.40 2.63 2.82 2.98 2.93 2.83 2.75 2.67 2.63 2.59 2.46 2.34 2.23 2.07 1.89 1.76 1.58 1.42 1.29 1.17 1.07 0.94 0.82 0.78 0.63 0.48 0.34 0.27 0.26 0.25 0.24 0.22 0.23 0.24 0.25 0.28 0.30
1.69 1.92 2.04 2.19 2.58 2.97 3.36 3.87 4.17 3.99 3.73 3.65 3.43 3.32 3.13 2.89 2.71 2.57 2.29 2.09 1.91 1.71 1.55 1.41 1.30 1.23 1.10 0.95 0.85 0.80 0.69 0.57 0.42 0.28 0.22 0.19 0.17 0.16 0.16 0.17 0.19 0.23 0.25
1.54 1.89 2.16 2.49 2.96 3.50 3.91 4.31 4.60 4.60 4.37 4.17 3.76 3.39 3.00 2.66 2.48 2.31 2.10 1.90 1.77 1.62 1.43 1.28 1.21 1.12 1.00 0.86 0.73 0.65 0.58 0.51 0.46 0.36 0.23 0.17 0.15 0.16 0.16 0.16 0.18 0.19 0.21
1.37 1.77 2.12 2.46 2.99 3.50 3.93 4.26 4.51 4.62 4.46 4.12 3.53 2.99 2.60 2.32 2.12 1.90 1.69 1.55 1.46 1.31 1.14 0.96 0.86 0.76 0.68 0.59 0.53 0.49 0.47 0.43 0.40 0.40 0.33 0.22 0.18 0.16 0.15 0.15 0.14 0.15 0.15
1.16 1.49 1.81 2.13 2.76 3.35 3.80 4.15 4.46 4.47 4.17 3.64 3.06 2.57 2.27 2.04 1.82 1.61 1.43 1.24 1.10 0.93 0.75 0.61 0.54 0.49 0.45 0.41 0.37 0.32 0.29 0.29 0.29 0.31 0.32 0.25 0.20 0.16 0.13 0.13 0.13 0.12 0.13